This demonstration page uses our WeatherBlox Daily Observations layout. Learn more.

Hourly Observations for December 11, 2017

Temp ( °F °C ) Dew Point ( °F °C ) Humidity (%) Winds ( mph kmh ) Pressure ( in mb ) Visibility ( mi km ) Precip ( " mm )
12:15 am 00:15 Clear 42 5.5 13 -10.5 31 31 W 14 22 30.18 1022 10 16.09344 0 0
12:35 am 00:35 Clear 42 5.4 13 -10.5 31 31 W 14 22 30.18 1022 10 16.09344 0 0
12:55 am 00:55 Clear 40 4.7 13 -10.5 33 33 W 15 24 30.18 1022 10 16.09344 0 0
1:15 am 01:15 Clear 38 3.4 13 -10.5 36 36 W 12 19 30.21 1023 10 16.09344 0 0
1:35 am 01:35 Clear 38 3.5 13 -10.5 35 35 W 13 20 30.21 1023 10 16.09344 0 0
1:55 am 01:55 Clear 38 3.4 13 -10.5 36 36 W 14 22 30.21 1023 10 16.09344 0 0
2:15 am 02:15 Clear 38 3.3 13 -10.4 36 36 W 13 20 30.21 1023 10 16.09344 0 0
2:35 am 02:35 Clear 37 2.7 13 -10.3 38 38 W 10 17 30.21 1023 10 16.09344 0 0
2:55 am 02:55 Clear 36 2.2 14 -10.2 40 40 W 9 15 30.21 1023 10 16.09344 0 0
3:15 am 03:15 Clear 36 2.2 14 -10.1 40 40 W 9 15 30.21 1023 10 16.09344 0 0
3:35 am 03:35 Clear 35 1.5 14 -10.2 42 42 W 9 15 30.21 1023 10 16.09344 0 0
3:55 am 03:55 Clear 35 1.5 14 -10 42 42 W 12 19 30.21 1023 10 16.09344 0 0
4:15 am 04:15 Clear 35 1.4 15 -9.7 44 44 W 10 17 30.18 1022 10 16.09344 0 0
4:35 am 04:35 Clear 34 1.1 15 -9.5 45 45 W 9 15 30.18 1022 10 16.09344 0 0
4:55 am 04:55 Clear 35 1.7 14 -9.8 43 43 WNW 8 13 30.21 1023 10 16.09344 0 0
5:15 am 05:15 Clear 34 1.3 15 -9.4 45 45 WNW 10 17 30.21 1023 10 16.09344 0 0
5:35 am 05:35 Clear 38 3.4 16 -9 40 40 NW 15 24 30.21 1023 10 16.09344 0 0
5:55 am 05:55 Clear 40 4.4 16 -9 37 37 NW 15 24 30.18 1022 10 16.09344 0 0
6:15 am 06:15 Clear 39 3.8 16 -9 39 39 NW 13 20 30.21 1023 10 16.09344 0 0
6:35 am 06:35 Clear 41 5.2 17 -8.4 37 37 NW 12 19 30.18 1022 10 16.09344 0 0
6:55 am 06:55 Clear 43 6.1 18 -8 36 36 WNW 14 22 30.18 1022 10 16.09344 0 0
7:15 am 07:15 Clear 44 6.8 18 -7.8 35 35 WNW 10 17 30.18 1022 10 16.09344 0 0
7:35 am 07:35 Clear 42 5.8 18 -7.9 37 37 W 12 19 30.18 1022 10 16.09344 0 0
7:55 am 07:55 Sunny 43 6 18 -7.8 37 37 W 14 22 30.18 1022 10 16.09344 0 0
8:15 am 08:15 Sunny 44 6.4 19 -7.5 37 37 W 14 22 30.18 1022 10 16.09344 0 0
8:35 am 08:35 Sunny 46 8 19 -7 34 34 W 14 22 30.15 1021 10 16.09344 0 0
8:55 am 08:55 Sunny 46 8 19 -7.2 34 34 W 16 26 30.15 1021 10 16.09344 0 0
9:15 am 09:15 Sunny 44 6.5 19 -7.5 36 36 W 13 20 30.18 1022 10 16.09344 0 0
9:35 am 09:35 Sunny 45 7.3 19 -7 36 36 WNW 13 20 30.15 1021 10 16.09344 0 0
9:55 am 09:55 Sunny 49 9.3 21 -6.3 33 33 NW 18 30 30.15 1021 10 16.09344 0 0
10:15 am 10:15 Sunny 50 10 20 -6.4 31 31 NW 20 31 30.15 1021 10 16.09344 0 0
10:35 am 10:35 Sunny 51 10.3 21 -6 32 32 NW 18 30 30.15 1021 10 16.09344 0 0
10:55 am 10:55 Sunny 51 10.6 21 -5.9 31 31 NW 24 39 30.12 1020 10 16.09344 0 0
11:15 am 11:15 Sunny 51 10.6 21 -5.9 31 31 NNW 16 26 30.12 1020 10 16.09344 0 0
11:35 am 11:35 Sunny 52 11 22 -5.7 31 31 NNW 21 33 30.12 1020 10 16.09344 0 0
11:55 am 11:55 Sunny 52 11.3 24 -4.6 33 33 NNW 28 44 30.12 1020 10 16.09344 0 0
12:15 pm 12:15 Sunny 52 11.1 24 -4.2 34 34 NNW 23 37 30.12 1020 10 16.09344 0 0
12:35 pm 12:35 Sunny 52 11.1 25 -4 35 35 NNW 25 41 30.12 1020 10 16.09344 0 0
12:55 pm 12:55 Sunny 52 11.3 25 -3.9 35 35 NNW 26 43 30.12 1020 10 16.09344 0 0
1:15 pm 13:15 Sunny 51 10.7 25 -4 36 36 NNW 20 31 30.12 1020 10 16.09344 0 0
1:35 pm 13:35 Sunny 51 10.8 25 -3.7 36 36 N 23 37 30.12 1020 10 16.09344 0 0
1:55 pm 13:55 Sunny 51 10.8 26 -3.6 37 37 N 18 30 30.12 1020 10 16.09344 0 0
2:15 pm 14:15 Sunny 50 10.2 26 -3.4 39 39 NNW 17 28 30.18 1022 10 16.09344 0 0
2:35 pm 14:35 Sunny 50 10 26 -3.2 40 40 NNW 21 33 30.18 1022 10 16.09344 0 0
2:55 pm 14:55 Sunny 49 9.3 27 -3 42 42 N 24 39 30.21 1023 10 16.09344 0 0
3:15 pm 15:15 Sunny 48 9.1 28 -2.5 44 44 NNW 22 35 30.21 1023 10 16.09344 0 0
3:35 pm 15:35 Sunny 46 8 28 -2.5 48 48 N 29 46 30.21 1023 10 16.09344 0 0
3:55 pm 15:55 Sunny 44 6.9 28 -2.2 53 53 N 18 30 30.27 1025 10 16.09344 0 0
4:15 pm 16:15 Sunny 44 6.5 28 -2 55 55 N 20 31 30.27 1025 10 16.09344 0 0
4:35 pm 16:35 Sunny 42 5.8 28 -2 58 58 N 17 28 30.27 1025 10 16.09344 0 0
4:55 pm 16:55 Mostly Cloudy 42 5.5 29 -1.8 60 60 NNW 18 30 30.3 1026 10 16.09344 0 0
5:15 pm 17:15 Cloudy 42 5.5 29 -1.7 60 60 NNW 16 26 30.3 1026 10 16.09344 0 0
5:35 pm 17:35 Cloudy 42 5.5 29 -1.6 61 61 N 17 28 30.33 1027 10 16.09344 0 0
5:55 pm 17:55 Cloudy 42 5.5 29 -1.5 61 61 N 16 26 30.33 1027 10 16.09344 0 0
6:15 pm 18:15 Cloudy 42 5.3 29 -1.5 62 62 N 15 24 30.33 1027 10 16.09344 0 0
6:35 pm 18:35 Cloudy 40 4.6 29 -1.5 65 65 N 13 20 30.39 1029 10 16.09344 0 0
6:55 pm 18:55 Cloudy 39 4 29 -1.7 67 67 N 12 19 30.39 1029 10 16.09344 0 0
7:15 pm 19:15 Mostly Cloudy 39 3.7 29 -1.5 69 69 N 14 22 30.39 1029 10 16.09344 0 0
7:35 pm 19:35 Cloudy 39 3.7 29 -1.5 69 69 N 9 15 30.39 1029 10 16.09344 0 0
7:55 pm 19:55 Partly Cloudy 37 2.7 29 -1.7 73 73 N 8 13 30.39 1029 10 16.09344 0 0
8:15 pm 20:15 Mostly Cloudy 36 2.3 28 -2 74 74 N 9 15 30.45 1031 10 16.09344 0 0
8:35 pm 20:35 Mostly Cloudy 37 3 30 -1.3 74 74 NNW 12 19 30.42 1030 10 16.09344 0 0
8:55 pm 20:55 Cloudy 37 2.6 30 -1.1 77 77 NNW 10 17 30.45 1031 10 16.09344 0 0
9:15 pm 21:15 Cloudy 37 2.5 30 -0.9 79 79 NNW 9 15 30.45 1031 10 16.09344 0 0
9:35 pm 21:35 Cloudy 37 2.8 31 -0.7 78 78 NNW 9 15 30.42 1030 10 16.09344 0 0
9:55 pm 21:55 Cloudy 37 2.8 31 -0.7 78 78 NNW 8 13 30.42 1030 10 16.09344 0 0
10:15 pm 22:15 Cloudy 37 2.8 31 -0.7 78 78 NNW 9 15 30.42 1030 10 16.09344 0 0
10:35 pm 22:35 Cloudy 37 2.8 31 -0.5 79 79 NNW 9 15 30.42 1030 10 16.09344 0 0
10:55 pm 22:55 Cloudy 37 2.5 31 -0.7 80 80 N 6 9 30.45 1031 10 16.09344 0 0
11:15 pm 23:15 Cloudy 35 1.7 30 -1 82 82 NW 5 7 30.45 1031 10 16.09344 0 0
11:35 pm 23:35 Cloudy 36 2.1 31 -0.7 82 82 NNW 7 11 30.45 1031 10 16.09344 0 0
11:55 pm 23:55 Cloudy 37 3 31 -0.7 77 77 N 12 19 30.42 1030 10 16.09344 0 0

Powered by AerisWeather